timestamp,surface_pressure_avg,surface_temp_avg,battery_voltage,lat,long
2023-02-03 00:09:00+00:00,300.2747,2.54,12.65,47.84626,-54.09684
2023-02-03 00:19:00+00:00,294.9564,2.5,12.65,47.84626,-54.09684
2023-02-03 00:29:00+00:00,289.0581,2.5,12.65,47.84626,-54.09684
2023-02-03 00:39:00+00:00,286.2664,2.49,12.65,47.84626,-54.09684
2023-02-03 00:49:00+00:00,280.733,2.42,12.65,47.84626,-54.09684
2023-02-03 00:59:00+00:00,267.0797,2.3,12.65,47.84626,-54.09684
2023-02-03 01:09:00+00:00,260.3764,2.3,12.65,47.84626,-54.09684
2023-02-03 01:19:01+00:00,261.3115,2.35,12.65,47.84626,-54.09684
2023-02-03 01:29:01+00:00,254.0914,2.37,12.65,47.84626,-54.09684
2023-02-03 01:39:01+00:00,244.5764,2.28,12.65,47.84626,-54.09684
2023-02-03 01:49:01+00:00,243.0481,2.2,12.65,47.84626,-54.09684
2023-02-03 01:59:01+00:00,240.8531,2.28,12.65,47.84626,-54.09684
2023-02-03 02:09:01+00:00,229.9798,2.2,12.65,47.84626,-54.09684
2023-02-03 02:19:01+00:00,227.2914,2.2,12.65,47.84626,-54.09684
2023-02-03 02:29:01+00:00,232.0548,2.2,12.65,47.84626,-54.09684
2023-02-03 02:39:01+00:00,226.4897,2.2,12.65,47.84626,-54.09684
2023-02-03 02:49:01+00:00,217.1481,2.1,12.65,47.84626,-54.09684
2023-02-03 02:59:01+00:00,216.6597,1.94,12.65,47.84626,-54.09684
2023-02-03 03:09:01+00:00,218.9464,1.9,12.65,47.84626,-54.09684
2023-02-03 03:19:00+00:00,218.0281,1.8,12.65,47.84626,-54.09684
2023-02-03 03:29:00+00:00,215.6314,1.79,12.65,47.84626,-54.09684
2023-02-03 03:39:00+00:00,214.6148,1.7,12.65,47.84626,-54.09684
2023-02-03 03:49:00+00:00,212.5281,1.7,12.65,47.84626,-54.09684
2023-02-03 03:59:00+00:00,209.0581,1.68,12.65,47.84626,-54.09684
2023-02-03 04:09:00+00:00,206.8448,1.6,12.65,47.84626,-54.09684
2023-02-03 04:19:00+00:00,207.5498,1.5,12.65,47.84626,-54.09684
2023-02-03 04:29:00+00:00,208.2831,1.4,12.65,47.84626,-54.09684
2023-02-03 04:39:00+00:00,207.1048,1.4,12.65,47.84626,-54.09684
2023-02-03 04:49:00+00:00,212.0648,1.4,12.65,47.84626,-54.09684
2023-02-03 04:59:00+00:00,217.1231,1.4,12.65,47.84626,-54.09684
2023-02-03 05:09:00+00:00,218.4331,1.39,12.65,47.84626,-54.09684
2023-02-03 05:19:00+00:00,221.2615,1.39,12.57,47.84626,-54.09684
2023-02-03 05:29:00+00:00,225.7864,1.39,12.57,47.84626,-54.09684
2023-02-03 05:39:00+00:00,227.5581,1.39,12.57,47.84626,-54.09684
2023-02-03 05:49:00+00:00,229.8181,1.4,12.57,47.84626,-54.09684
2023-02-03 05:59:00+00:00,232.1248,1.4,12.57,47.84626,-54.09684
2023-02-03 06:09:00+00:00,234.5831,1.4,12.57,47.84626,-54.09684
2023-02-03 06:19:00+00:00,238.3231,1.45,12.57,47.84626,-54.09684
2023-02-03 06:29:00+00:00,242.8748,1.5,12.57,47.84626,-54.09684
2023-02-03 06:39:00+00:00,251.8364,1.59,12.57,47.84626,-54.09684
2023-02-03 06:49:00+00:00,258.0647,1.7,12.57,47.84626,-54.09684
2023-02-03 06:59:00+00:00,260.1264,1.78,12.57,47.84626,-54.09684
2023-02-03 07:09:00+00:00,264.5064,1.75,12.57,47.84626,-54.09684
2023-02-03 07:19:00+00:00,272.6797,1.7,12.57,47.84626,-54.09684
2023-02-03 07:29:00+00:00,276.0464,1.7,12.57,47.84626,-54.09684
2023-02-03 07:39:00+00:00,278.173,1.69,12.57,47.84626,-54.09684
2023-02-03 07:49:00+00:00,285.9864,1.74,12.57,47.84626,-54.09684
2023-02-03 07:59:00+00:00,293.6747,1.8,12.57,47.84626,-54.09684
2023-02-03 08:09:00+00:00,297.2297,1.8,12.57,47.84626,-54.09684
2023-02-03 08:19:00+00:00,305.2581,1.7,12.57,47.84626,-54.09684
2023-02-03 08:29:00+00:00,316.6229,1.68,12.57,47.84626,-54.09684
2023-02-03 08:39:00+00:00,322.2296,1.6,12.57,47.84626,-54.09684
2023-02-03 08:49:00+00:00,323.8096,1.5,12.57,47.84626,-54.09684
2023-02-03 08:59:00+00:00,332.1412,1.43,12.57,47.84626,-54.09684
2023-02-03 09:09:00+00:00,336.3246,1.4,12.57,47.84626,-54.09684
2023-02-03 09:19:00+00:00,329.9729,1.4,12.57,47.84626,-54.09684
2023-02-03 09:29:00+00:00,327.2146,1.39,12.57,47.84626,-54.09684
2023-02-03 09:39:00+00:00,332.7214,1.43,12.57,47.84626,-54.09684
2023-02-03 09:49:00+00:00,332.8613,1.4,12.57,47.84626,-54.09684
2023-02-03 09:59:00+00:00,332.5147,1.31,12.57,47.84626,-54.09684
2023-02-03 10:09:00+00:00,336.8679,1.4,12.57,47.84626,-54.09684
2023-02-03 10:19:00+00:00,341.048,1.4,12.57,47.84626,-54.09684
2023-02-03 10:29:00+00:00,339.3162,1.38,12.57,47.84626,-54.09684
2023-02-03 10:39:00+00:00,343.0829,1.39,12.57,47.84626,-54.09684
2023-02-03 10:49:00+00:00,347.06300000000016,1.46,12.57,47.84626,-54.09684
2023-02-03 10:59:00+00:00,343.8795,1.54,12.57,47.84626,-54.09684
2023-02-03 11:09:00+00:00,344.0598,1.67,12.57,47.84626,-54.09684
2023-02-03 11:19:00+00:00,344.9213,1.7,12.57,47.84626,-54.09684
2023-02-03 11:29:00+00:00,342.4430000000001,1.7,12.57,47.84626,-54.09684
2023-02-03 11:39:00+00:00,341.7913,1.68,12.57,47.84626,-54.09684
2023-02-03 11:49:00+00:00,339.918,1.7,12.57,47.84626,-54.09684
2023-02-03 11:59:00+00:00,339.3947,1.69,12.57,47.84626,-54.09684
2023-02-03 12:09:00+00:00,338.0396,1.66,12.57,47.84626,-54.09684
2023-02-03 12:19:00+00:00,335.4563,1.6,12.65,47.84626,-54.09684
2023-02-03 12:29:00+00:00,330.033,1.6,12.65,47.84626,-54.09684
2023-02-03 12:39:00+00:00,328.5613,1.55,12.65,47.84626,-54.09684
2023-02-03 12:49:00+00:00,325.3929,1.57,12.65,47.84626,-54.09684
2023-02-03 12:59:00+00:00,321.5096,1.55,12.65,47.84626,-54.09684
2023-02-03 13:09:00+00:00,322.2596,1.55,12.65,47.84626,-54.09684
2023-02-03 13:19:00+00:00,319.1996,1.57,12.73,47.84626,-54.09684
2023-02-03 13:29:00+00:00,312.008,1.59,12.73,47.84626,-54.09684
2023-02-03 13:39:00+00:00,304.408,1.6,12.73,47.84626,-54.09684
2023-02-03 13:49:00+00:00,298.983,1.6,12.73,47.84626,-54.09684
2023-02-03 13:59:00+00:00,289.1497,1.6,12.73,47.84626,-54.09684
2023-02-03 14:09:00+00:00,283.3247,1.59,12.73,47.84626,-54.09684
2023-02-03 14:19:00+00:00,280.1564,1.71,12.81,47.84626,-54.09684
2023-02-03 14:29:00+00:00,282.2881,1.89,12.81,47.84626,-54.09684
2023-02-03 14:39:00+00:00,282.868,1.9,12.81,47.84626,-54.09684
2023-02-03 14:49:00+00:00,280.0664,1.89,12.81,47.84626,-54.09684
2023-02-03 14:59:00+00:00,269.9298,1.6,12.81,47.84626,-54.09684
2023-02-03 15:09:00+00:00,266.1881,1.7,12.81,47.84626,-54.09684
2023-02-03 15:19:00+00:00,261.4064,1.79,12.65,47.84626,-54.09684
2023-02-03 15:29:00+00:00,254.9164,1.8,12.65,47.84626,-54.09684
2023-02-03 15:39:00+00:00,249.8031,1.7,12.65,47.84626,-54.09684
2023-02-03 15:49:00+00:00,250.1647,1.69,12.65,47.84626,-54.09684
2023-02-03 15:59:00+00:00,250.0197,1.7,12.65,47.84626,-54.09684
2023-02-03 16:09:00+00:00,244.8714,1.6,12.65,47.84626,-54.09684
2023-02-03 16:19:00+00:00,240.4998,1.4,12.65,47.84626,-54.09684
2023-02-03 16:29:00+00:00,244.2214,1.5,12.65,47.84626,-54.09684
2023-02-03 16:39:00+00:00,241.1714,1.5,12.65,47.84626,-54.09684
2023-02-03 16:49:00+00:00,236.4048,1.5,12.65,47.84626,-54.09684
2023-02-03 16:59:00+00:00,235.9064,1.55,12.65,47.84626,-54.09684
2023-02-03 17:09:00+00:00,239.3497,1.5,12.65,47.84626,-54.09684
2023-02-03 17:19:00+00:00,232.0614,1.4,12.57,47.84626,-54.09684
2023-02-03 17:29:00+00:00,221.7581,1.36,12.57,47.84626,-54.09684
2023-02-03 17:39:00+00:00,226.6348,1.4,12.57,47.84626,-54.09684
2023-02-03 17:49:00+00:00,233.2831,1.48,12.57,47.84626,-54.09684
2023-02-03 17:59:00+00:00,229.8148,1.4,12.57,47.84626,-54.09684
2023-02-03 18:09:00+00:00,231.3381,1.4,12.57,47.84626,-54.09684
2023-02-03 18:19:00+00:00,241.1581,1.46,12.57,47.84626,-54.09684
2023-02-03 18:29:00+00:00,246.4397,1.49,12.57,47.84626,-54.09684
2023-02-03 18:39:00+00:00,245.0264,1.5,12.57,47.84626,-54.09684
2023-02-03 18:49:00+00:00,251.0731,1.5,12.57,47.84626,-54.09684
2023-02-03 18:59:00+00:00,258.3647,1.58,12.57,47.84626,-54.09684
2023-02-03 19:09:00+00:00,258.1631,1.59,12.57,47.84626,-54.09684
2023-02-03 19:19:00+00:00,258.948,1.6,12.57,47.84626,-54.09684
2023-02-03 19:29:00+00:00,267.8564,1.6,12.57,47.84626,-54.09684
2023-02-03 19:39:00+00:00,272.2697,1.6,12.57,47.84626,-54.09684
2023-02-03 19:49:00+00:00,272.0947,1.6,12.57,47.84626,-54.09684
2023-02-03 19:59:00+00:00,276.6581,1.46,12.57,47.84626,-54.09684
2023-02-03 20:09:00+00:00,286.358,1.6,12.57,47.84626,-54.09684
2023-02-03 20:19:00+00:00,291.6064,1.4,12.57,47.84626,-54.09684
2023-02-03 20:29:00+00:00,298.0297,1.4,12.57,47.84626,-54.09684
2023-02-03 20:39:00+00:00,308.6414,1.4,12.57,47.84626,-54.09684
2023-02-03 20:49:00+00:00,317.7147,1.46,12.57,47.84626,-54.09684
2023-02-03 20:59:00+00:00,322.113,1.6,12.57,47.84626,-54.09684
2023-02-03 21:09:00+00:00,328.2712,1.6,12.57,47.84626,-54.09684
2023-02-03 21:19:01+00:00,328.3997,1.6,12.57,47.84626,-54.09684
2023-02-03 21:29:01+00:00,326.8497,1.5,12.57,47.84626,-54.09684
2023-02-03 21:39:01+00:00,344.3096,1.5,12.57,47.84626,-54.09684
2023-02-03 21:49:01+00:00,358.8396,1.5,12.57,47.84626,-54.09684
2023-02-03 21:59:01+00:00,355.4263,1.4,12.57,47.84626,-54.09684
2023-02-03 22:09:01+00:00,346.7797,1.4,12.57,47.84626,-54.09684
2023-02-03 22:19:00+00:00,355.0945,1.48,12.57,47.84626,-54.09684
2023-02-03 22:29:00+00:00,352.2714,1.45,12.57,47.84626,-54.09684
2023-02-03 22:39:00+00:00,338.5247,1.3,12.57,47.84626,-54.09684
2023-02-03 22:49:00+00:00,343.3246,1.38,12.57,47.84626,-54.09684
2023-02-03 22:59:00+00:00,349.3046,1.4,12.57,47.84626,-54.09684
2023-02-03 23:09:00+00:00,334.4929,1.3,12.57,47.84626,-54.09684
2023-02-03 23:19:00+00:00,319.2446,1.4,12.57,47.84626,-54.09684
2023-02-03 23:29:00+00:00,319.413,1.47,12.57,47.84626,-54.09684
2023-02-03 23:39:00+00:00,321.4113,1.5,12.57,47.84626,-54.09684
2023-02-03 23:49:00+00:00,319.3063,1.5,12.57,47.84626,-54.09684
2023-02-03 23:59:00+00:00,311.9514,1.52,12.57,47.84626,-54.09684
